Tracking 18844 objects as of 21-Nov-2017
HD Live streaming from Space Station
objects crossing your sky now

COSMOS 700

Track COSMOS 700 now!
10-day predictions
COSMOS 700 is classified as:


NORAD ID: 7593
Int'l Code: 1974-105A
Perigee: 963.7 km
Apogee: 1,001.8 km
Inclination: 83.0 °
Period: 104.6 minutes
Semi major axis: 7353 km
RCS: 1.9963 m2 (large)
Launch date: December 26, 1974
Source: Commonwealth of Independent States (former USSR) (CIS)
Launch site: PLESETSK MISSILE AND SPACE COMPLEX (PKMTR)
aabbcc
Your satellite tracking list
Your tracking list is empty




NASA's NSSDC Master Catalog

Two Line Element Set (TLE):
1 07593U 74105A   17325.22077105  .00000049  00000-0  34545-4 0  9991
2 07593  82.9533 210.8211 0025885  62.6788  49.9506 13.76708187155008
Source of the keplerian elements: AFSPC